Location: Unspecified
(0.0000°N, 0.0000°E)
Time: 20:13:14
(UTC+02:00)

Vanguard 1 Rocket - Visible Passes

Search period start: 25 October 2014 00:00
Search period end: 03 November 2014 23:00
Orbit: 654 x 4226 km, 34.3° (Epoch: 21 October)

Date Brightness Start Highest point End Pass type
(mag) Time Alt. Az. Time Alt. Az. Time Alt. Az.
25 Oct 11.3 00:59:07 10° WSW 01:10:49 31° W 01:10:49 31° W visible
25 Oct 10.5 21:13:38 10° SW 21:34:06 64° SE 21:46:54 39° ENE visible
25 Oct 10.6 23:43:20 10° WSW 00:04:15 60° WNW 00:04:15 60° WNW visible
26 Oct 10.7 19:02:34 10° SSW 19:19:26 45° SE 19:40:21 15° E visible
26 Oct 10.4 21:29:35 10° SW 21:52:45 83° NW 21:57:42 70° NNE visible
27 Oct 11.4 00:04:26 10° W 00:15:04 27° WNW 00:15:04 27° WNW visible
27 Oct 10.4 20:17:18 10° SW 20:37:38 75° SE 20:51:12 40° ENE visible
27 Oct 10.8 22:47:53 10° WSW 23:08:33 51° NW 23:08:33 51° NW visible
28 Oct 10.6 19:06:07 10° SW 19:23:08 54° SE 19:44:42 16° ENE visible
28 Oct 10.5 21:33:40 10° WSW 21:56:20 71° NW 22:02:04 62° NNE visible
29 Oct 11.5 00:10:17 10° W 00:19:25 23° WNW 00:19:25 23° WNW visible
29 Oct 10.3 05:39:31 10° N 05:43:08 12° N 05:46:08 10° NNE visible
29 Oct 10.4 20:21:06 10° SW 20:41:09 87° SE 20:55:35 39° NE visible
29 Oct 10.9 22:52:50 10° W 23:12:57 44° NW 23:12:57 44° NW visible
30 Oct 10.7 04:26:04 10° NNW 04:29:36 11° N 04:32:47 10° NNE visible
30 Oct 10.4 19:09:46 10° SW 19:26:40 65° SE 19:49:07 17° ENE visible
30 Oct 10.6 21:38:01 10° WSW 22:00:04 60° NW 22:06:29 53° N visible
31 Oct 11.6 00:16:42 10° WNW 00:23:50 19° WNW 00:23:50 19° WNW visible
31 Oct 11.0 03:19:20 11° NNE 03:19:20 11° NNE 03:20:36 10° NNE visible
31 Oct 10.1 05:41:25 10° NNW 05:48:13 18° NNE 05:53:01 10° ENE visible
31 Oct 10.4 20:25:06 10° WSW 20:44:44 80° NW 21:00:00 36° NE visible
31 Oct 11.1 22:58:13 10° W 23:17:22 37° NW 23:17:22 37° NW visible
01 Nov 10.6 04:29:58 12° NNW 04:35:02 15° N 04:40:18 10° NE visible
01 Nov 10.3 19:13:32 10° SW 19:30:12 77° SE 19:53:31 16° ENE visible
01 Nov 10.8 21:42:42 10° WSW 22:04:03 51° NW 22:10:53 45° N visible
02 Nov 11.7 00:23:32 10° WNW 00:28:14 15° WNW 00:28:14 15° WNW visible
02 Nov 10.9 03:23:18 14° NNE 03:23:18 14° NNE 03:27:12 10° NNE visible
02 Nov 9.7 05:44:03 10° NNW 05:53:07 26° NNE 05:58:47 10° ENE visible
02 Nov 10.5 20:29:19 10° WSW 20:48:29 68° NW 21:04:23 32° NE visible
02 Nov 11.2 23:04:06 10° W 23:21:44 31° NW 23:21:44 31° NW visible
03 Nov 10.3 04:34:00 15° NNW 04:40:17 20° NNE 04:46:44 10° ENE visible
03 Nov 10.3 19:17:27 10° SW 19:33:47 89° NW 19:57:51 15° NE visible
03 Nov 11.0 21:47:45 10° W 22:08:21 42° NNW 22:15:12 38° N visible
